Flag for Costa Rica Weather past 2 weeks in San Jose, Costa Rica

Now
70 °F

Clear.


Feels Like: 70 °F
Forecast: 58 / 78 °F
Wind: 7 mph from Northeast

Location: Juan Santamaria

Current Time: Aug 22, 2014 at 2:36:32 AM

Latest Report: Aug 22, 2014 at 2:00 AM


Visibility: 10 mi

Pressure: 30.01 "Hg

Humidity: 73%

Dew point: 61 °F

Location of San JoseLocation

Historic Weather in San Jose — Graph

°F

San Jose temperature yesterday

Maximum temperature yesterday: 81 °F (at 2:00 PM)
Minimum temperature yesterday: 68 °F (at 3:00 AM)
Average temperature yesterday: 73 °F

Past Weeks' High & Low Weather Summary

 TemperatureHumidityPressure
High88 °F (Aug 13, 2:00 PM)100% (Aug 10, 6:00 PM)30.10 "Hg (Aug 10, 6:00 PM)
Low63 °F (Aug 9, 2:00 AM)38% (Aug 13, 2:00 PM)29.94 "Hg (Aug 14, 4:00 PM)
Average73 °F74%30.02 "Hg
* Reported Aug 7 1:00 AM — Aug 22 1:00 AM, San Jose, Weather by CustomWeather, © 2014

Note: Actual official high and low records may vary slightly from our data, if they occured in-between our weather recording intervals... More about our weather records

Advertising

San Jose weather history for previous 24 hours

 ConditionsComfort  
Time TempWeatherWind HumidityBarometerVisibility
1:00 AM
Aug 22
70 °FClear.2 mph73%30.03 "Hg10 mi
12:00 AM68 °FClear.2 mph83%30.06 "Hg10 mi
11:00 PM
Aug 21
68 °FPartly cloudy.5 mph100%30.08 "HgN/A
10:00 PM68 °FClear.3 mph83%30.07 "Hg10 mi
9:00 PM72 °FClear.3 mph65%30.07 "Hg10 mi
8:00 PM72 °FClear.8 mph65%30.05 "Hg10 mi
7:00 PM73 °FClear.7 mph53%30.05 "Hg10 mi
6:00 PM75 °FClear.10 mph54%30.03 "Hg10 mi
5:00 PM75 °FSunny.10 mph54%30.01 "Hg10 mi
4:00 PM77 °FSunny.12 mph51%29.99 "Hg10 mi
3:00 PM79 °FPartly sunny.9 mph51%30.00 "HgN/A
2:00 PM81 °FPartly sunny.9 mph51%30.01 "HgN/A
1:00 PM79 °FWarm.10 mph54%30.02 "HgN/A
12:00 PM79 °FPartly sunny.10 mph54%30.05 "HgN/A
11:00 AM77 °FPartly sunny.15 mph57%30.06 "HgN/A
10:00 AM79 °FScattered clouds.13 mph54%30.07 "HgN/A
9:00 AM77 °FPartly sunny.8 mph61%30.07 "HgN/A
8:00 AM75 °FScattered clouds.5 mph65%30.07 "HgN/A
7:00 AM72 °FScattered clouds.3 mph69%30.06 "HgN/A
6:00 AM70 °FBroken clouds.14 mph73%30.02 "HgN/A
5:00 AM70 °FPassing clouds.12 mph73%30.01 "HgN/A
4:00 AM68 °FPassing clouds.9 mph78%29.99 "HgN/A
3:00 AM68 °FPassing clouds.14 mph78%29.99 "HgN/A
2:00 AM70 °FClear.16 mph69%30.00 "Hg10 mi
Weather by CustomWeather, © 2014

See weather overviewHow to use our weather pages